Wind_Speed
42 42 42 42 42 43 44 44 43 43 42 43 44 43 42 42 43 43 42 41 41 40 39 39 39 39 39 38 37 37 36 36 35 34 33 33 32 32 31 31 31 31 30 30
41 41 41 42 43 44 43 44 43 43 43 43 43 43 43 43 43 42 42 42 42 41 41 41 40 40 40 39 39 38 38 37 36 35 35 34 33 33 32 31 31 30 30 30
39 39 40 42 43 44 44 43 43 43 43 44 44 45 44 44 44 43 42 42 42 42 41 41 41 41 41 40 40 40 39 38 38 37 36 35 34 34 33 32 32 32 31 31
37 36 39 42 43 43 44 44 44 45 45 45 45 46 45 44 44 44 43 42 42 42 42 42 41 42 41 41 41 40 40 40 39 38 37 37 36 35 34 34 34 33 33 32
36 36 38 40 41 43 43 44 45 45 46 47 47 48 45 45 45 43 42 42 42 43 43 43 42 42 42 42 42 41 41 40 40 39 39 38 37 37 36 36 35 35 34 34
35 36 36 38 39 41 43 43 45 47 47 49 47 48 47 45 44 43 43 42 42 43 43 43 43 43 44 44 43 43 42 41 41 40 40 39 39 38 38 37 37 36 36 35
33 35 35 35 37 38 41 42 43 45 47 49 48 49 49 46 44 44 44 44 43 43 44 44 43 44 44 44 44 44 43 43 42 42 41 41 40 40 40 39 39 38 37 37
31 33 33 34 35 37 38 40 42 43 44 46 47 49 49 46 45 44 44 45 44 44 44 45 44 44 44 45 45 45 45 44 44 43 42 42 42 42 42 41 41 40 39 39
30 31 32 32 33 35 36 39 39 41 41 42 45 47 48 46 46 45 45 45 45 45 45 45 45 45 45 45 45 45 45 45 45 44 44 43 43 43 43 43 42 42 40 40
30 31 30 30 33 34 36 36 37 39 40 41 41 43 46 46 45 45 45 44 44 44 45 44 44 45 46 46 46 46 46 47 46 45 44 43 44 43 43 43 43 42 41 41
28 29 29 30 31 33 34 35 36 38 40 41 40 41 42 43 43 44 45 45 45 45 45 44 44 44 45 47 47 48 47 47 47 46 46 45 45 44 44 44 44 44 43 43
27 28 28 29 29 31 33 33 35 37 39 40 41 41 41 41 41 42 44 45 45 45 45 45 45 45 46 46 47 47 48 47 47 47 47 46 46 45 45 45 45 45 45 45
27 27 27 28 30 30 31 32 35 36 37 38 40 40 38 41 43 43 43 44 45 44 44 45 45 45 46 46 47 47 47 48 48 48 47 47 47 47 47 47 47 47 47 46
26 28 28 28 28 30 31 31 33 35 38 37 37 38 38 38 41 43 43 44 44 44 44 44 45 45 46 47 47 47 47 47 48 48 48 48 48 48 48 48 48 47 47 47
26 26 26 27 27 30 32 32 32 34 36 37 36 35 36 37 39 41 42 44 44 44 44 44 45 45 46 47 47 47 47 47 47 48 48 48 48 49 49 48 48 48 48 48
24 25 25 26 27 29 31 33 33 34 35 37 37 35 34 35 37 38 40 42 43 44 45 44 44 44 45 46 46 46 47 47 47 47 48 48 48 48 48 48 48 48 48 48
21 23 23 24 26 29 31 31 32 32 34 35 36 35 35 35 35 36 37 39 41 42 44 44 44 44 44 44 45 45 46 46 46 46 46 47 48 48 48 48 49 49 49 49
18 20 22 22 22 24 26 28 29 30 31 32 33 34 33 34 35 36 37 38 38 40 41 42 43 43 43 43 43 43 44 45 45 45 45 45 46 47 48 49 49 49 50 50
15 15 17 18 19 20 21 22 24 26 28 30 31 33 34 34 34 35 36 37 37 37 39 40 42 43 43 43 43 43 43 43 43 44 45 45 46 46 47 48 49 50 50 51
14 14 14 15 16 17 18 19 21 24 25 27 28 30 32 33 34 34 35 37 37 36 36 37 39 41 42 42 42 43 43 43 43 43 43 44 44 45 46 47 48 49 50 50
13 14 14 14 15 15 16 17 18 20 22 24 27 28 30 31 32 33 34 34 36 37 36 36 37 37 39 40 41 41 42 42 43 43 43 43 44 44 44 45 46 47 48 49
13 13 14 14 15 15 15 16 18 19 20 22 25 27 29 29 29 29 30 31 32 34 34 34 34 34 35 37 39 39 40 41 42 43 44 44 44 44 44 45 46 47 47 48
13 14 14 15 15 15 15 16 17 18 19 21 23 25 26 27 28 29 29 29 30 31 32 33 34 34 34 35 36 36 37 38 38 40 41 41 42 43 43 44 45 46 46 46
13 14 14 15 15 15 15 15 16 17 18 19 21 23 25 25 26 27 28 29 30 30 31 31 32 32 33 33 33 34 34 35 35 36 37 38 39 40 41 42 43 43 44 44
12 13 13 14 14 14 14 15 15 15 16 16 18 20 22 22 23 24 26 28 29 28 28 28 28 29 30 31 31 32 33 33 34 35 35 36 37 38 40 40 41 41 42 43
11 12 12 11 12 13 13 14 14 13 13 14 16 17 19 21 22 23 24 26 27 27 27 27 27 27 28 28 30 31 31 33 34 34 35 36 36 37 38 39 39 40 39 40
Wind_Direction
255 253 251 250 250 250 250 249 248 246 244 244 243 243 241 240 239 237 236 238 239 238 235 235 235 236 237 236 237 237 238 240 241 243 244 245 245 246 246 246 247 248 249 249
256 254 252 250 247 246 247 247 247 246 244 243 243 242 240 239 238 237 238 239 239 238 236 236 236 236 236 236 237 237 239 240 241 242 243 244 244 245 246 246 247 248 249 251
258 255 252 249 246 244 244 245 245 245 244 243 243 242 240 239 238 237 238 239 239 237 237 236 236 236 236 236 237 238 239 240 241 242 243 245 245 245 246 247 247 247 249 251
260 255 252 249 245 244 243 243 244 244 244 243 243 244 239 238 237 237 238 238 238 237 237 236 236 236 236 237 237 238 239 240 241 242 243 245 246 246 246 246 246 247 249 250
260 255 252 249 246 244 244 243 242 242 243 244 242 243 239 237 237 238 239 239 239 238 237 236 236 235 236 236 237 237 238 239 240 241 243 244 245 245 245 245 246 247 248 249
260 256 253 249 245 243 243 242 241 241 241 242 241 243 241 237 237 238 238 238 238 238 238 237 236 236 236 236 237 237 238 239 240 242 243 244 245 245 245 246 247 248 249 249
258 254 253 249 244 241 241 241 241 241 241 241 240 242 242 239 238 238 238 238 239 239 239 238 236 236 236 236 238 238 239 239 240 241 243 243 244 245 245 245 246 248 249 249
261 253 250 248 244 241 240 240 240 241 243 243 241 242 241 240 238 238 239 239 239 239 239 239 238 237 236 236 237 238 239 239 240 242 242 243 244 244 245 245 246 247 248 249
265 257 250 247 243 242 240 238 238 239 241 243 242 242 240 240 238 238 238 239 239 240 240 240 239 237 236 236 237 238 239 240 241 242 243 243 243 244 245 246 246 247 248 249
267 261 252 248 243 241 241 239 237 236 238 239 240 241 241 241 241 240 239 239 238 238 239 239 239 238 238 238 238 238 239 240 241 242 242 243 243 244 245 246 246 247 248 249
268 263 253 248 244 240 239 237 237 238 238 239 241 242 242 243 242 240 239 238 238 238 238 239 238 238 238 238 239 239 240 240 240 240 242 242 243 243 244 245 245 246 247 248
269 262 256 249 245 242 240 239 238 238 239 240 242 244 242 242 240 239 238 238 238 238 238 239 239 239 239 239 239 240 240 240 240 240 241 242 243 243 244 245 246 247 247 248
268 261 257 249 244 243 240 237 238 239 239 242 244 245 244 243 240 240 239 238 238 238 238 239 240 239 239 239 239 240 240 240 240 241 241 242 243 244 245 246 246 247 248 249
265 258 256 252 248 245 240 236 237 239 239 242 245 245 243 242 241 240 239 238 238 238 238 239 239 239 240 240 240 240 240 240 240 241 242 243 243 244 245 245 246 247 249 250
266 259 255 252 251 248 243 239 238 238 238 241 242 244 242 241 241 241 240 239 238 238 239 239 240 240 240 240 240 241 240 240 241 241 242 243 244 245 245 246 247 248 249 250
267 261 255 251 251 249 246 243 244 242 240 241 241 241 240 238 238 239 240 239 239 239 239 239 240 241 240 239 239 239 240 241 241 242 243 244 244 245 246 247 248 249 250 251
267 263 257 254 251 249 247 244 244 243 241 241 240 239 236 236 238 237 238 238 238 239 239 240 240 240 240 240 239 239 239 240 240 241 242 243 244 245 246 247 248 249 250 252
273 267 263 259 252 249 246 244 244 243 241 240 238 237 237 236 235 236 237 237 237 237 237 238 239 239 239 240 241 241 240 239 240 241 242 243 244 245 246 247 249 250 251 252
277 273 265 261 255 251 245 246 246 245 242 240 238 238 237 236 235 235 238 238 237 237 237 237 238 238 239 241 241 241 240 239 240 241 243 244 245 246 246 247 249 250 251 253
274 268 265 260 260 254 248 247 249 246 245 240 239 238 238 238 237 237 239 239 240 239 239 238 238 237 238 239 240 240 241 240 241 242 243 244 246 247 248 248 249 250 252 253
272 268 265 260 259 255 254 252 251 249 245 241 240 238 237 238 239 238 239 240 240 240 239 237 238 240 240 239 240 240 241 242 243 244 245 246 247 249 249 250 250 251 253 254
276 270 266 262 259 256 260 261 257 252 246 243 241 240 238 238 239 237 237 238 239 238 237 237 238 240 241 241 241 241 242 244 245 244 245 246 248 250 250 251 251 253 254 255
275 271 269 266 263 259 261 263 259 254 251 247 242 240 239 240 240 239 237 236 237 237 238 239 240 241 242 241 241 242 243 244 244 244 245 247 248 249 251 251 252 252 253 254
273 269 269 267 262 264 264 264 262 258 257 252 246 242 241 242 240 238 237 236 236 238 240 241 241 240 240 241 242 242 243 243 244 246 247 248 249 249 250 251 252 253 253 254
278 273 271 268 264 265 263 263 263 260 256 251 248 245 242 241 240 239 237 236 236 237 239 239 238 238 239 240 241 242 243 244 246 248 250 250 252 252 252 253 255 255 255 255
282 277 274 271 266 266 262 261 260 258 255 251 247 245 246 244 243 242 241 238 238 239 238 238 238 238 240 241 242 243 245 247 249 250 252 253 253 254 255 255 255 256 256 256
Height
5645 5649 5651 5655 5657 5660 5663 5665 5669 5673 5675 5678 5681 5686 5691 5694 5698 5703 5708 5712 5716 5720 5725 5729 5733 5737 5741 5744 5748 5752 5755 5758 5761 5764 5767 5769 5772 5774 5776 5778 5780 5783 5785 5787
5633 5636 5640 5641 5644 5647 5649 5653 5657 5661 5664 5667 5670 5674 5679 5683 5688 5693 5698 5703 5707 5711 5715 5720 5724 5728 5732 5736 5740 5743 5747 5750 5753 5756 5759 5762 5764 5767 5769 5771 5773 5776 5778 5780
5620 5626 5626 5627 5630 5633 5637 5641 5646 5649 5653 5655 5658 5663 5668 5673 5678 5682 5687 5692 5697 5701 5706 5710 5715 5719 5723 5727 5731 5735 5738 5742 5745 5748 5751 5754 5757 5759 5762 5764 5766 5768 5771 5773
5608 5611 5612 5614 5617 5620 5624 5630 5633 5636 5639 5643 5647 5649 5658 5662 5667 5672 5677 5682 5686 5691 5696 5700 5705 5709 5714 5718 5722 5725 5729 5733 5736 5739 5743 5746 5749 5752 5754 5756 5758 5761 5763 5765
5596 5598 5599 5602 5606 5608 5613 5617 5620 5624 5627 5630 5635 5637 5645 5650 5656 5662 5667 5672 5676 5681 5686 5690 5695 5700 5704 5708 5712 5716 5720 5723 5727 5731 5734 5737 5740 5743 5745 5748 5750 5753 5755 5757
5585 5586 5586 5589 5593 5596 5600 5604 5607 5610 5613 5616 5624 5626 5632 5639 5646 5651 5656 5661 5666 5670 5675 5680 5684 5689 5693 5697 5702 5706 5710 5714 5718 5721 5724 5728 5731 5734 5736 5739 5742 5744 5746 5749
5574 5575 5575 5577 5581 5585 5588 5591 5594 5596 5599 5604 5612 5613 5620 5629 5635 5640 5645 5649 5654 5659 5664 5668 5673 5678 5683 5687 5692 5696 5700 5704 5708 5711 5715 5718 5721 5724 5727 5730 5733 5735 5738 5740
5562 5565 5566 5567 5569 5573 5576 5580 5583 5585 5589 5594 5599 5601 5609 5617 5623 5628 5633 5637 5642 5647 5652 5656 5662 5667 5671 5676 5681 5685 5689 5693 5697 5701 5704 5708 5711 5714 5717 5720 5723 5726 5728 5730
5551 5554 5556 5557 5559 5562 5565 5568 5573 5576 5578 5582 5585 5590 5597 5603 5610 5616 5621 5626 5631 5636 5640 5645 5650 5656 5660 5665 5669 5673 5677 5682 5686 5690 5693 5697 5700 5704 5707 5710 5713 5716 5718 5721
5541 5543 5546 5548 5550 5552 5556 5559 5562 5565 5567 5570 5575 5580 5585 5591 5598 5604 5609 5614 5619 5624 5629 5634 5639 5644 5649 5653 5658 5662 5666 5670 5674 5678 5682 5686 5689 5693 5696 5699 5702 5705 5708 5710
5533 5533 5536 5538 5540 5543 5547 5549 5551 5555 5558 5562 5565 5572 5576 5582 5587 5593 5598 5603 5608 5613 5618 5623 5627 5632 5637 5641 5645 5650 5654 5658 5663 5667 5671 5675 5678 5682 5685 5689 5692 5695 5697 5700
5524 5524 5526 5529 5531 5533 5536 5539 5542 5546 5549 5552 5556 5564 5566 5571 5575 5580 5586 5591 5596 5601 5606 5611 5615 5620 5624 5629 5634 5638 5642 5647 5651 5655 5659 5663 5667 5670 5674 5678 5681 5684 5687 5689
5516 5516 5517 5520 5525 5526 5527 5530 5533 5536 5540 5543 5547 5554 5556 5560 5564 5569 5574 5579 5585 5590 5595 5599 5604 5608 5613 5617 5622 5626 5630 5635 5639 5643 5647 5651 5655 5659 5663 5666 5669 5672 5675 5678
5508 5509 5510 5512 5513 5515 5518 5521 5524 5527 5530 5534 5538 5543 5547 5550 5554 5558 5563 5568 5573 5578 5583 5588 5592 5596 5601 5605 5610 5614 5618 5622 5626 5631 5635 5639 5643 5647 5651 5654 5658 5661 5664 5666
5500 5501 5502 5503 5505 5506 5509 5513 5516 5518 5521 5526 5530 5534 5538 5541 5545 5549 5553 5557 5562 5567 5571 5576 5581 5585 5589 5593 5597 5601 5606 5610 5614 5618 5623 5627 5631 5634 5638 5642 5645 5649 5652 5654
5493 5493 5494 5496 5497 5498 5500 5504 5507 5510 5513 5516 5520 5525 5528 5531 5535 5538 5542 5546 5551 5555 5560 5565 5569 5573 5577 5581 5585 5589 5594 5598 5602 5607 5611 5614 5618 5622 5626 5630 5633 5636 5639 5642
5487 5486 5486 5488 5489 5489 5492 5496 5499 5501 5504 5508 5511 5516 5519 5522 5525 5528 5532 5536 5540 5544 5548 5553 5557 5562 5566 5570 5574 5578 5582 5586 5590 5594 5598 5602 5606 5610 5613 5617 5620 5623 5626 5629
5481 5480 5480 5480 5482 5483 5487 5488 5490 5492 5495 5498 5501 5505 5509 5512 5516 5519 5522 5525 5529 5533 5537 5541 5546 5550 5555 5558 5562 5566 5570 5574 5579 5582 5586 5590 5593 5597 5601 5604 5607 5611 5613 5616
5476 5475 5475 5475 5475 5476 5480 5481 5482 5484 5487 5490 5492 5496 5499 5502 5506 5509 5512 5515 5519 5522 5526 5530 5535 5539 5543 5547 5551 5556 5560 5563 5567 5571 5575 5578 5581 5585 5588 5591 5594 5597 5600 5603
5471 5471 5471 5470 5470 5472 5475 5475 5475 5478 5480 5482 5483 5486 5490 5493 5497 5501 5503 5505 5509 5512 5516 5520 5524 5528 5532 5536 5540 5545 5549 5553 5556 5560 5563 5566 5570 5573 5576 5579 5581 5584 5586 5589
5467 5466 5466 5466 5466 5467 5469 5469 5470 5473 5474 5475 5476 5479 5481 5484 5488 5491 5494 5496 5499 5503 5507 5510 5514 5518 5522 5526 5530 5534 5537 5541 5545 5548 5551 5555 5558 5561 5563 5566 5569 5571 5573 5576
5462 5462 5462 5462 5462 5465 5464 5464 5465 5466 5466 5468 5469 5471 5474 5476 5479 5482 5485 5488 5491 5494 5497 5501 5505 5508 5512 5515 5519 5523 5526 5530 5533 5536 5540 5543 5546 5548 5551 5553 5556 5558 5560 5562
5458 5458 5457 5458 5460 5459 5458 5459 5459 5459 5460 5461 5463 5465 5467 5470 5472 5475 5477 5480 5483 5486 5489 5493 5496 5499 5503 5506 5509 5513 5516 5519 5522 5525 5528 5531 5533 5536 5538 5540 5543 5545 5546 5548
5454 5454 5453 5453 5453 5453 5454 5454 5453 5454 5455 5456 5457 5459 5461 5463 5465 5468 5470 5473 5476 5478 5481 5485 5488 5491 5494 5497 5500 5503 5506 5509 5512 5515 5517 5519 5521 5523 5526 5528 5530 5532 5533 5535
5450 5450 5449 5449 5449 5449 5449 5449 5449 5449 5449 5450 5452 5453 5455 5457 5459 5461 5463 5466 5468 5471 5474 5477 5479 5482 5485 5488 5491 5494 5497 5500 5503 5505 5507 5509 5511 5512 5514 5516 5518 5519 5521 5523
5446 5446 5445 5445 5445 5445 5445 5444 5444 5444 5445 5446 5447 5448 5450 5451 5453 5455 5457 5459 5462 5464 5467 5469 5472 5475 5478 5480 5483 5486 5488 5491 5493 5495 5497 5498 5500 5502 5503 5505 5507 5508 5510 5511